Location: Allens Landing
(37.8284°N, 89.7284°W)
Time: 06:48:55
(UTC+00:00)

Vanguard 2 Rocket - Pass Details

Date: 09 November 2024
Orbit: 554 x 3296 km, 32.9° (Epoch: 04 December)

Event Time Altitude Azimuth Distance (km) Brightness Sun altitude
Rises 11:07:46 0° 190° (S) 5,476 10.9 -17.2°
Reaches altitude 10° 11:12:18 10° 175° (S) 4,914 10.8 -16.3°
Maximum altitude 11:22:34 22° 131° (SE) 4,741 11.3 -14.3°
Drops below altitude 10° 11:35:09 10° 91° (E) 6,195 12.6 -11.8°
Sets 11:41:52 0° 78° (ENE) 7,277 12.8 -10.6°
